CAPE
2623 2762 2956 3095 3067 2786 2487 2739 2708 2812 2811 2372 2468 2105 1878 2097 1942 1821 1719 1934 2107 2072 1760 1539 958 770 723 758 710 676 261 40 382 314 1694 1505 1460 1518 1239 1446 1268 1176 1083 898 712 590 390 369 1636 1539 1783 1731 1753 1650 2043 2093 2036 1951 1865 1876 1926 1364 910
2363 2496 2749 2452 2424 2568 2535 2486 2743 2628 2666 2952 2754 2618 2120 2060 2162 2140 1786 1578 1920 2055 1768 1561 1323 1066 989 607 1077 1714 1205 774 906 509 1533 1416 889 1333 1553 1552 1246 1398 1196 1186 1346 966 363 224 254 1643 1712 1490 1650 1665 1489 1882 2019 2082 1873 1952 1833 1672 975
2307 2314 2244 2461 2636 2505 2455 2508 2643 2680 2721 3142 3144 2833 2725 2110 2164 2026 2020 1513 1780 1956 1755 1446 1192 1148 1302 969 1406 1961 1944 2048 1768 880 1375 1486 918 1575 1487 1672 1462 1664 1196 1131 1360 1358 1028 641 290 372 1483 1797 1424 1582 1668 1540 1687 1874 1954 1969 1830 1654 976
1845 1896 1996 2322 3232 2792 2493 2472 2554 2527 2731 2667 3062 3151 2942 2650 2500 2145 2047 1778 1639 1725 1780 1616 1386 1388 1514 1305 1371 1925 2079 2274 1620 1234 1451 1500 1382 1874 1502 1582 1569 1412 1199 1149 1400 1468 1158 1090 508 49 1061 1671 1806 1880 1566 1499 1550 1544 1598 1901 1810 1652 874
2042 2271 1901 2219 2717 2906 2708 2568 2529 2523 2626 2729 3206 3344 3211 2813 2659 2614 2224 2002 1673 1762 1796 1903 1620 1348 1260 1382 1432 1873 1883 2105 1840 1530 1412 1323 1984 1709 1897 1511 1613 1282 1227 1068 1018 1376 1332 850 777 658 656 1531 1727 1399 1623 1330 1205 1268 1447 1600 1472 1397 985
2639 2307 2604 2242 2180 2246 1842 2327 2534 2390 2385 2587 3015 3295 3347 3266 2884 2781 2452 2174 1879 1849 1999 2018 1927 1499 1107 1300 1551 1774 1862 1940 1661 2055 1696 1508 2260 1403 2009 1513 1715 1221 1208 1275 1158 1100 1271 1086 793 733 684 1650 1688 1425 1441 1067 1028 1131 1201 1301 973 1215 1174
2129 2573 2666 2293 2418 2287 2480 2524 2229 2510 2313 2302 2612 3182 3446 3400 3071 2714 2325 2179 2014 1788 1855 2000 2093 1836 1421 1489 1767 1936 1898 1946 1731 2224 1977 1822 2117 1615 1845 1948 1800 1310 1170 1270 1478 1575 1431 1348 910 717 847 1697 1423 1404 1426 1172 1032 1076 1050 1116 1101 957 1195
2026 2086 2154 2258 2310 2304 2351 2539 2401 2334 2537 2318 2183 2554 3242 3392 3249 2949 2588 2436 2113 1796 1858 1977 2074 2091 1826 1705 1670 1910 2014 2009 1982 2294 1982 1952 2056 1934 1928 2066 1738 1387 1520 1646 1676 1787 1496 1479 1020 854 841 1590 1635 1460 1450 1437 1431 1062 1049 1029 910 1320 1314
1574 1928 1954 2063 2184 2487 2744 2440 2338 1949 2160 2383 2286 2184 2282 2686 3259 3003 2687 1879 1485 1498 1738 1917 1932 2078 2252 2291 1874 1869 2212 1897 2333 2583 2172 2050 2097 2085 2165 2033 1698 1659 1769 2039 1870 1953 1727 1694 1354 1212 1094 1374 1545 1420 1433 1375 1381 1348 1361 1254 850 879 1305
1040 1768 1869 2006 2205 2224 2368 2720 2768 2893 3137 3012 2628 2472 2437 2514 2692 3116 2740 1781 1497 1570 2040 2054 2052 2040 2180 2314 2272 2015 2051 1944 2267 2609 2257 2029 2180 2233 2094 2124 1871 1839 1956 2280 2247 2091 2210 1921 1596 1385 1227 1560 1624 1415 1554 1458 1608 1516 1534 1149 1175 880 977
305 1264 1831 1915 2030 2126 2132 2292 2486 2466 2626 2813 2851 2997 2760 2751 2747 2860 3091 2305 1762 1809 2192 2207 2226 2162 2281 2354 2409 2186 2008 2142 2402 2356 2370 2373 2402 2353 2121 1960 1964 1837 2120 2499 2563 2538 2346 2185 1780 1574 1524 1910 1905 1552 1414 1469 1503 1582 1567 1408 1295 1088 878
124 523 1509 1875 1983 2000 2016 2059 2180 2390 2457 2514 2683 2541 2286 2466 2320 2412 2443 2308 1872 1932 2036 2278 2345 2256 2326 2281 2339 2255 1980 2168 2217 2205 2364 2587 2647 2606 2359 2208 2195 1939 2300 2689 2685 2565 2497 2215 2073 1928 1730 2187 2129 2012 1584 1490 1443 1819 1625 1742 1418 1244 1109
111 267 890 1758 1915 1862 1960 2085 2178 2340 2394 2457 2511 2476 2076 2241 1993 1966 2051 2166 2105 2090 1735 1938 2134 2120 2485 2188 2220 2234 2048 2082 2105 2141 2224 2356 2478 2526 2592 2445 2360 2139 2480 2529 2652 2610 2497 2223 2180 2056 1937 2254 2275 2146 2084 1653 1496 1531 1831 1930 1607 1460 1267
84 256 640 1410 1868 1907 1931 2019 2207 2248 2304 2375 2446 2440 2106 1819 1808 1751 1892 2052 2162 2142 2117 1992 2054 2090 1996 2366 2303 2286 2110 2060 2016 2072 2005 2064 2349 2397 2394 2405 2407 2390 2521 2444 2278 2402 2372 2251 2329 2426 2147 2119 2193 2168 2179 1794 1524 1400 1944 1811 1634 1251 1337
44 200 513 1310 1694 1866 2000 2059 2243 2352 2536 2561 2709 2510 2166 2178 1961 1807 1808 1865 2136 1983 2195 1693 2130 2102 1943 1806 2170 2304 2179 2044 1996 1935 2025 2021 2260 2419 2256 2226 2279 2375 2409 2332 2107 2236 2291 2145 2376 2506 2321 2240 2077 2045 2237 1936 1727 1539 1828 1758 1689 1481 1444
9 111 392 847 1477 1641 1833 2079 2179 2364 2491 2669 2887 2867 2535 2193 1891 1748 1756 1936 1710 1963 2224 1846 1674 2199 1965 1915 2064 2179 2279 2194 2196 2010 1945 1982 2067 2400 2418 2190 2162 2032 2220 2269 2291 2306 2292 2237 2106 2289 2318 2243 2281 2339 2181 2258 2044 1538 1399 1924 1643 1598 1384
0 64 314 660 987 1529 1580 1924 2126 2141 2254 2593 2811 2863 2593 2214 1679 1759 1899 1824 1617 1636 2188 2232 2065 1824 1939 1948 2061 2109 2217 1872 2098 2116 2037 1966 1921 2098 2278 2317 2258 2002 2197 2260 2330 2363 2504 2405 2233 2107 2454 2571 2625 2502 2347 2368 2393 1925 1408 1564 1703 1701 1249
3 21 157 575 898 1178 1523 1824 2031 2083 2189 2404 1815 2328 2655 2304 1815 1678 1933 1654 1484 1271 1995 2317 2025 1511 1652 1776 2066 2046 2051 2003 2071 2046 2090 1988 1839 2000 2154 2139 2148 2061 2021 2073 2288 2405 2363 2524 2464 2208 2294 2450 2354 2444 2460 2408 2355 2149 1842 1719 1930 1846 1690
7 16 50 514 1146 1133 1265 1674 1974 2066 2194 2363 1982 2591 2638 2441 1980 1836 1787 1646 1279 1097 1445 1992 1642 1692 1629 1620 2386 2036 2072 1866 1822 1978 2052 2023 1804 1976 2046 2072 2012 1908 2003 2135 2294 2220 2238 2382 2630 2456 2242 2371 2295 2304 2252 2417 2343 1954 2067 1925 1927 1674 1789
10 40 44 173 1053 1299 1413 1656 1890 1946 2113 2325 2486 2462 2231 1386 1292 1908 1762 1682 1128 776 910 1943 1574 1545 1562 1653 1634 1791 1981 2025 1841 1862 1923 1882 1714 1730 1866 1803 1866 1884 1879 2058 2200 2266 2258 2335 2370 2606 2328 2452 2551 2253 2266 2184 2291 2036 2032 2086 2003 1879 1784
2 48 70 84 522 1183 1223 1596 1844 1867 2035 2324 2389 2010 1675 1327 1360 1742 1923 1525 881 735 768 1725 1852 1343 1159 1284 1438 1461 1936 1584 1742 1828 1900 1861 1779 1815 1854 1872 1748 1963 2112 2130 2168 2141 2257 2392 2576 2574 2488 2427 2362 2271 2273 2040 2087 2018 2013 2147 1946 1985 1724
11 50 94 81 204 992 1454 1494 1679 1825 1979 2235 2325 1785 1278 1038 872 1355 2138 1696 750 735 968 2595 1703 1432 1305 935 1040 1405 1727 1599 1376 1619 1840 1832 1821 1780 1897 1987 1949 2061 2084 1985 1875 2013 2066 2173 2362 2358 2560 2599 2419 2363 2397 1828 2036 2137 1926 1886 1871 1925 1810
21 44 107 108 143 629 841 1394 1731 1769 1798 1970 1866 1586 1359 1006 769 1337 1842 1036 865 1346 2547 2274 1431 1306 1176 816 889 1182 1695 1281 1374 1881 1954 1872 1904 1908 1862 1974 2093 1714 1782 1841 1802 1851 1854 1905 2089 2240 2537 2726 2616 2737 2783 2567 2210 2073 1999 1845 1715 1729 1648
20 50 116 134 178 688 756 1101 1690 1584 1563 1357 1900 1990 1223 841 641 1379 1344 812 932 1534 2078 1917 1386 1245 1166 1013 810 845 1013 1132 822 1190 1591 2312 2254 2048 2036 1912 2120 1896 1746 1772 1808 1843 1821 1860 2057 2143 2104 2203 2510 2714 2912 2752 2578 2385 2211 2036 1840 1668 1749
18 47 122 107 352 602 574 1543 1512 1397 1691 1919 1711 1532 1395 1047 796 1628 1778 1178 961 1641 2130 1503 1210 1172 1071 943 890 879 1011 880 1090 1633 2053 2236 1841 1798 2076 2033 2048 2050 2285 2313 2366 1935 1733 1798 1928 2122 2191 2152 2304 2544 2609 2799 2701 2455 2429 2115 1827 1633 1587
41 93 124 125 418 626 1043 1064 1132 1180 1414 1864 1740 1322 1421 1440 1190 2002 2024 1884 1407 2161 2405 1520 1100 1016 960 908 835 911 1042 1523 2017 2363 2322 2063 2122 1668 1975 2014 2136 2199 2048 1990 1857 2056 2173 1841 1753 1978 1961 2037 2218 2384 2376 2378 2400 2907 2527 2296 2162 2020 1752
102 108 119 221 509 846 798 475 998 1150 1470 1749 1297 1357 1248 1928 2171 2130 2186 2026 1875 1946 2393 1676 1355 1162 998 964 926 1040 988 1678 1927 1975 2367 2174 1750 1805 1845 1976 2044 2148 2219 2357 2312 2020 2086 2176 1992 1632 1729 1743 1868 2022 2121 2081 2127 2160 2224 2622 2344 2207 2063
79 97 120 344 679 947 576 506 789 1028 1392 1617 1557 1721 1324 1439 2118 2189 2103 2143 2054 1947 2140 1856 1484 1160 1079 953 826 907 960 987 1766 2149 1739 1819 2090 2020 2085 2393 2259 2183 2134 2153 2215 2085 2117 2016 2052 2071 1764 1856 2104 2332 2329 1945 1954 1993 2092 2643 2476 2297 2356
89 90 257 557 781 854 683 947 1394 1279 1348 1426 1488 1411 1718 1974 1948 2036 2146 2167 2162 2006 2133 1666 1338 1199 1132 1050 938 818 750 762 1303 1555 1419 1498 1373 1293 1415 1591 2405 2200 2223 2144 1884 1862 1919 1912 1931 1761 1888 2074 2273 2307 2387 2020 1924 1764 2193 2501 2507 2435 2329
141 147 321 475 354 707 806 1015 1294 1325 1225 1205 1258 1616 1954 1556 1444 1890 2017 2080 2111 1964 1956 1884 1365 1242 1142 1050 959 831 782 791 989 1146 1173 1194 1013 1193 1425 2158 2298 2191 2222 2312 1915 1780 1859 1711 1914 1801 1788 1851 2042 2156 2190 2343 1962 1837 1816 1900 1903 1934 2043
186 206 586 764 884 1045 1068 1268 1183 1605 1147 1546 1961 1938 1794 1875 1815 1919 2051 2128 1994 2094 1955 1667 1179 1171 1124 1064 927 861 863 859 878 1108 1189 1257 1176 1178 1369 1693 1847 2234 2229 2262 2007 1872 1795 1483 1930 1698 1855 1971 2163 2175 2245 2308 2445 1917 1812 1819 1917 1892 1806
302 555 569 749 848 976 976 1040 905 1396 1553 1833 1978 1894 1623 1454 1918 1868 1907 2058 1745 1831 1987 1884 1438 1197 1114 1064 935 863 850 883 880 1027 1247 1348 1222 1310 1327 1691 1752 1988 2168 2283 1915 1892 1848 1627 1934 1860 1823 2201 2139 2115 2130 2228 2163 2527 2003 1747 1776 1897 1898
332 412 575 777 788 772 769 927 1407 1419 1548 1585 1303 1746 1726 1638 1186 1391 1653 2212 2212 1875 2073 2471 1596 1399 1168 999 933 781 816 892 991 1125 1384 1391 1384 1279 1263 1551 1692 1721 1833 1870 1967 1972 1823 1711 2022 2019 2057 1931 1995 2136 2254 2164 1972 2151 2643 1876 1862 1650 1842
453 395 528 682 633 492 453 358 681 1043 1103 1622 1672 1621 1705 1324 1252 1519 1919 2236 2233 1997 2024 2122 1552 1276 1150 1021 908 798 788 909 1076 1170 1365 1364 1485 1492 1384 1463 1759 1746 1736 1791 1745 1946 1868 1787 1740 2054 2084 2075 1849 2098 2055 2037 2238 1745 1981 2078 1930 1832 1683
571 412 511 842 814 822 498 329 364 583 890 977 1213 1382 1438 1375 1549 1483 1917 2099 1945 1998 1773 1526 2255 1232 1059 944 846 716 609 882 1001 1238 1300 1410 1531 1639 1463 1578 1817 2371 1739 1694 1646 1626 1807 1814 1835 1708 2050 1815 1789 1700 1828 1990 2084 2081 1845 1622 1550 1699 1629
788 658 523 515 674 772 649 709 466 316 430 574 461 404 843 964 1188 1177 1633 1535 1623 1884 1925 1474 1124 1207 988 885 791 692 585 600 742 871 1252 1301 1356 1464 1514 1611 1675 1411 1631 1717 1705 1655 1607 1659 1778 1764 1700 1648 1789 1897 1824 1798 1735 1699 1878 1683 1554 1606 1579
795 950 898 818 769 1066 1069 1087 831 516 632 1003 552 494 347 847 821 580 1129 1704 1575 1561 1727 1800 1279 939 852 811 744 677 623 571 551 645 793 1148 1367 1555 1546 1543 1460 1315 1446 1564 1668 1683 1651 1583 1584 1679 1708 1654 1638 1722 1811 1733 1872 1910 1752 1483 1643 1787 1806
Wind_Speed
27 31 34 34 33 32 29 27 25 23 22 22 22 19 19 18 18 17 15 15 16 18 21 24 23 21 21 19 17 17 16 nan 13 13 13 13 11 10 7 7 7 6 4 2 4 4 4 3 6 5 5 6 6 6 7 8 8 8 8 8 8 9 10
34 32 35 37 35 33 30 30 28 26 24 24 24 23 21 20 20 19 18 16 17 18 20 26 28 24 22 21 19 20 18 18 17 17 16 15 13 13 10 8 8 6 5 4 3 1 4 4 4 7 6 6 6 7 8 8 8 8 9 9 8 10 9
42 41 37 38 38 35 32 31 30 29 26 27 26 26 25 22 21 21 21 17 18 19 21 26 33 29 25 23 21 22 20 19 21 19 18 18 16 16 12 11 9 8 6 6 5 2 2 5 6 3 6 9 8 9 10 11 11 9 10 10 10 10 9
42 39 39 36 40 37 35 33 31 30 29 27 27 28 29 27 25 23 23 20 19 20 22 27 37 33 28 27 25 23 22 20 23 22 21 20 18 18 14 12 9 9 8 7 7 5 2 0 2 nan 3 6 6 8 11 11 11 11 11 11 12 12 12
39 44 40 39 42 39 36 36 34 33 31 29 28 30 30 30 29 26 24 21 20 21 21 26 38 36 31 31 28 27 26 23 24 23 23 20 17 18 16 14 11 10 9 8 9 8 5 2 1 0 2 4 4 6 9 11 11 11 12 12 13 13 14
42 41 42 43 45 43 40 37 38 36 34 32 30 30 31 31 32 30 27 24 22 21 20 22 35 35 32 32 30 28 28 25 25 24 24 22 20 18 18 16 13 10 9 10 10 9 8 5 3 1 3 6 4 7 8 9 10 11 12 13 13 15 14
44 45 45 45 45 43 44 43 39 39 37 35 32 30 32 32 33 33 30 26 23 22 21 21 28 34 34 33 31 31 29 29 27 24 25 24 22 19 19 17 14 12 10 10 11 11 10 8 4 2 4 6 3 6 7 8 10 11 12 12 13 14 15
48 47 48 48 47 45 45 44 44 42 40 38 35 33 32 32 35 36 34 32 32 28 25 25 28 32 35 35 35 34 33 32 28 26 26 25 23 20 18 18 17 14 12 11 13 11 11 9 7 5 5 6 6 6 7 7 10 12 13 14 15 15 15
51 50 50 50 49 48 47 47 46 43 41 41 40 37 34 34 37 39 41 44 37 28 26 28 29 30 33 36 37 36 34 34 30 27 28 25 23 21 19 19 19 16 13 12 12 12 12 11 9 8 6 6 6 7 7 6 8 9 14 14 14 15 15
50 50 50 49 50 50 48 48 47 46 44 44 43 41 38 37 37 40 43 40 32 29 27 27 29 29 30 34 37 36 35 34 32 29 29 27 24 23 22 20 20 18 15 14 13 13 13 13 11 10 8 7 7 5 7 7 9 8 12 14 13 15 16
49 49 50 50 52 53 52 51 49 48 47 46 46 45 42 40 40 40 44 41 36 32 30 30 30 30 30 33 36 37 35 35 34 33 31 29 26 25 23 22 21 20 17 15 14 14 14 14 13 11 10 9 8 6 7 6 7 9 10 12 12 12 15
48 47 49 50 53 53 51 51 49 48 49 49 49 48 45 43 42 42 42 40 37 34 34 34 32 31 31 33 34 37 37 35 34 33 32 30 28 26 23 21 22 21 19 16 15 15 15 15 14 13 13 12 10 9 8 7 6 11 10 12 12 13 15
49 47 47 49 51 51 50 50 50 49 49 51 50 50 47 45 43 43 42 39 37 35 34 35 34 31 32 33 33 37 39 37 33 32 32 31 31 28 23 21 22 22 21 19 18 17 16 16 16 14 14 13 11 11 11 9 7 11 14 13 12 13 19
nan 49 47 46 48 50 50 50 50 50 51 51 51 51 50 47 44 43 41 40 38 38 36 34 35 36 33 34 35 35 38 39 35 33 32 30 30 29 25 22 22 23 22 20 18 18 17 16 16 16 15 14 13 13 13 11 10 10 14 13 13 14 19
nan 52 49 47 46 48 49 48 47 48 49 51 52 52 51 50 47 44 43 40 38 38 38 33 35 38 35 32 35 38 38 39 38 34 33 32 31 31 28 24 22 22 21 19 17 17 17 17 17 17 16 15 14 14 14 13 12 10 14 15 15 16 20
nan 52 51 49 46 45 46 45 45 44 46 50 53 53 53 52 48 45 43 41 39 38 37 37 36 39 36 33 33 36 38 39 40 39 35 32 31 31 30 28 24 22 23 19 17 17 18 17 18 18 17 18 16 15 14 13 12 12 12 15 15 17 19
nan nan 52 52 46 44 46 46 44 41 42 49 53 53 54 53 49 47 45 42 40 39 38 37 39 38 35 33 32 32 35 37 40 41 38 34 33 33 30 30 28 24 22 20 18 18 18 18 19 20 19 20 19 17 15 13 12 12 12 13 17 16 17
nan nan 52 53 48 46 45 45 44 40 41 46 49 49 54 55 52 48 47 44 42 40 38 38 41 41 38 35 30 30 31 34 38 40 39 36 34 33 32 31 30 27 24 21 20 18 19 17 20 22 22 22 20 19 17 15 13 12 12 13 18 17 17
nan nan nan 51 49 48 47 45 43 42 40 43 45 48 53 55 53 49 47 45 44 42 40 43 44 42 42 37 34 31 31 32 35 38 39 38 35 35 34 32 32 29 26 23 21 19 18 19 21 23 24 24 22 21 17 17 16 14 13 12 17 18 18
nan nan nan 53 52 51 48 46 44 42 41 42 46 49 51 50 49 51 48 47 46 44 42 43 44 45 43 44 39 33 33 34 34 37 39 39 38 36 35 34 33 32 27 25 23 21 20 20 22 23 26 27 25 22 19 19 18 17 16 16 16 17 19
nan nan nan nan 52 50 49 46 45 43 41 42 44 45 50 50 47 50 51 49 47 48 46 45 45 46 49 44 44 38 37 37 35 37 39 41 41 40 38 36 34 34 30 28 25 24 23 23 25 25 28 30 28 23 22 21 21 21 20 19 17 19 20
nan nan nan nan 52 50 48 46 45 45 42 43 44 43 47 47 43 44 52 51 49 50 53 56 60 61 56 49 44 39 39 39 40 38 40 43 43 42 42 41 39 36 32 30 27 26 25 25 26 27 29 32 31 27 24 23 22 23 23 22 21 21 20
nan nan 48 51 51 50 49 48 47 46 42 42 43 44 46 47 43 44 52 52 50 55 58 56 56 56 55 53 55 57 55 51 46 44 44 44 44 43 42 43 42 38 36 33 32 29 27 27 27 28 31 33 33 31 28 25 24 25 26 25 24 24 22
nan nan 44 48 50 48 47 47 47 44 43 42 44 46 48 47 43 45 52 53 51 55 57 58 58 58 56 51 52 53 53 53 53 48 43 43 44 42 41 41 43 44 43 41 36 32 28 29 29 27 26 30 33 33 31 28 26 27 28 28 27 25 24
nan nan 42 45 47 48 46 48 49 48 46 46 48 48 47 47 44 47 53 53 53 56 57 59 55 52 51 51 50 52 51 49 47 44 41 42 43 42 42 42 45 47 45 39 35 36 32 29 30 30 26 27 31 31 31 31 31 30 29 29 28 26 26
nan nan 40 44 47 45 46 50 47 43 41 47 51 50 46 47 46 50 51 53 55 55 58 60 54 50 51 51 47 48 51 48 45 45 46 45 45 44 45 46 47 50 49 46 40 36 32 32 33 30 29 27 29 31 30 28 29 32 33 29 28 28 27
24 30 38 44 46 45 46 44 43 42 42 46 46 47 44 44 51 50 50 54 56 56 58 63 58 55 53 51 48 48 54 50 46 46 47 48 47 46 46 48 49 51 51 51 44 39 36 33 35 38 36 34 32 31 31 28 26 27 30 31 29 29 30
nan nan 34 40 44 45 46 42 43 42 45 46 44 47 47 45 48 48 50 55 56 57 61 66 61 57 54 51 48 49 51 52 51 50 50 52 50 49 48 50 50 52 53 50 48 44 41 39 38 38 37 35 32 31 33 32 30 32 34 33 29 29 31
nan nan 30 37 41 42 39 39 45 48 48 47 47 47 47 48 46 46 50 54 55 57 63 67 61 58 55 52 50 53 53 50 49 50 53 50 50 49 50 48 48 50 54 51 50 47 44 44 42 40 38 35 32 32 33 32 32 32 33 32 32 31 34
18 20 26 32 34 36 36 34 39 44 44 43 43 45 51 49 46 46 48 53 56 59 61 66 62 58 55 53 55 55 54 52 48 47 49 48 48 49 46 45 46 48 51 52 52 51 46 46 46 42 41 39 37 38 36 35 37 36 33 30 31 33 33
15 15 18 22 28 31 33 35 35 40 39 41 45 48 49 48 47 48 49 52 56 58 58 60 60 58 55 55 54 53 52 51 50 48 45 45 47 46 42 42 41 43 48 49 54 53 51 51 47 45 43 41 40 39 39 37 40 41 38 36 34 34 37
15 17 18 21 25 27 31 33 34 38 38 42 46 48 51 50 50 48 50 51 54 53 58 62 61 59 56 56 55 55 53 54 51 48 46 44 42 42 41 42 39 38 42 45 54 53 53 55 50 47 45 42 41 40 42 41 37 40 45 44 41 41 41
35 36 39 44 47 47 50 48 43 39 38 42 46 49 51 51 48 46 48 51 54 52 56 64 65 60 58 57 54 56 54 53 51 48 48 46 43 39 40 41 41 37 39 44 53 50 53 51 50 47 46 44 41 41 44 43 41 40 45 47 44 42 41
32 32 36 39 37 40 44 46 52 54 47 41 42 45 45 44 45 46 48 51 53 52 57 59 65 59 58 57 55 53 54 52 50 50 50 48 44 41 40 42 42 44 41 41 49 51 50 50 49 46 45 44 43 45 47 47 46 45 42 45 45 45 43
27 30 31 32 35 39 43 45 46 49 51 52 50 44 41 39 41 43 46 51 53 54 56 58 65 62 58 57 56 51 54 52 52 51 50 47 45 43 42 43 43 49 43 41 43 51 48 50 48 50 43 45 47 47 48 47 48 48 46 45 43 44 46
31 31 33 35 35 37 42 45 45 47 49 50 46 45 46 42 40 38 41 48 53 55 56 61 60 65 59 58 57 53 50 53 55 56 51 49 47 45 44 45 45 47 44 41 42 45 47 47 51 50 42 43 48 49 52 48 47 48 49 48 46 44 47
30 30 30 31 31 33 37 40 43 45 46 47 46 44 42 42 42 38 38 46 51 53 54 58 59 61 64 58 58 54 51 51 56 55 51 50 50 50 48 46 45 46 46 42 42 43 43 45 49 45 43 41 42 47 52 49 50 49 50 50 47 47 47
Wind_Direction
244 249 255 257 258 257 258 254 247 250 257 259 258 257 260 260 253 251 251 252 254 249 230 215 211 213 213 210 202 207 204 nan 198 195 214 223 222 225 236 245 247 238 233 252 164 141 123 74 9 15 355 355 360 352 338 333 333 329 329 338 337 337 334
249 245 249 253 255 256 256 255 251 250 250 251 254 256 256 260 258 253 251 252 255 255 244 221 211 212 216 213 210 207 208 203 197 197 206 218 223 226 242 244 251 251 255 247 230 163 108 89 61 10 4 4 18 11 1 351 336 330 330 332 336 329 331
247 244 242 244 250 252 252 252 251 251 248 246 249 254 255 255 255 257 251 254 257 259 258 232 212 207 210 212 213 211 208 207 205 200 202 213 223 230 236 243 247 252 247 255 267 253 114 115 115 75 342 357 17 13 1 3 354 345 333 327 325 324 325
251 253 250 247 247 249 248 248 248 250 247 243 245 249 256 255 252 254 251 253 254 257 265 241 213 205 206 207 211 214 210 209 209 207 205 211 222 231 237 233 238 249 246 258 262 270 226 118 55 nan 353 4 29 349 360 2 3 355 346 337 330 327 322
251 250 251 250 249 246 248 247 245 246 245 242 244 248 254 257 255 253 252 253 253 256 271 240 209 203 205 206 208 211 211 213 213 215 214 214 223 228 232 226 225 231 243 246 256 255 258 213 184 56 335 332 9 357 332 356 5 359 356 350 345 335 332
243 248 249 249 252 250 248 249 247 244 243 241 242 244 250 257 256 256 253 252 248 251 262 239 211 205 206 206 207 210 212 217 217 221 222 221 223 221 225 223 223 226 233 246 246 257 257 227 211 230 300 310 348 328 329 348 358 4 359 359 356 347 342
234 242 246 247 249 248 248 248 245 245 243 241 241 243 246 253 254 255 253 249 245 244 249 241 223 217 211 206 207 210 213 216 219 225 226 228 224 219 220 224 222 221 228 238 250 255 261 260 247 254 273 299 330 324 327 349 353 355 0 7 2 357 353
232 234 240 243 245 245 246 246 242 242 243 241 239 238 240 247 251 253 253 246 234 227 235 237 234 229 221 211 206 209 213 216 219 225 228 233 229 226 224 222 221 216 222 235 247 252 258 262 255 256 275 302 310 319 331 340 346 5 356 4 8 4 0
236 233 234 239 242 243 243 244 245 245 242 240 239 236 235 240 247 250 250 245 236 223 224 230 236 236 232 223 213 209 212 216 219 226 228 232 233 234 229 225 221 217 218 231 242 246 250 257 257 254 266 288 297 308 318 335 346 0 356 354 2 10 3
238 236 234 235 238 242 242 241 243 246 244 241 239 236 234 238 243 248 251 254 251 239 234 236 237 240 239 231 223 216 212 214 217 223 227 229 233 237 232 230 224 217 216 228 234 242 247 250 254 255 261 274 286 287 302 325 341 345 347 352 349 1 10
237 236 236 234 234 238 241 240 240 242 244 242 240 237 236 235 237 244 248 249 246 239 234 235 239 242 244 237 232 225 219 215 215 219 225 229 234 238 237 232 228 220 219 224 232 238 242 247 249 252 256 266 274 279 282 300 306 323 323 338 340 342 357
239 237 236 236 235 236 238 239 238 240 243 243 242 240 236 235 236 238 241 245 245 241 234 230 232 236 242 240 236 231 228 223 217 218 225 229 231 236 241 239 235 227 221 222 227 235 239 245 248 246 250 256 269 276 274 274 272 294 302 316 326 330 335
240 240 239 238 238 237 237 238 236 237 241 242 242 242 239 236 235 235 237 239 240 238 237 237 232 230 235 239 239 235 233 232 224 219 223 229 229 233 239 243 241 233 226 223 225 231 236 243 246 246 248 252 261 271 273 272 278 278 294 305 312 318 318
nan 240 239 240 240 239 237 238 237 235 237 240 240 241 241 237 234 233 233 235 238 239 236 235 234 230 229 237 240 240 238 236 232 224 222 228 231 233 236 242 244 241 233 226 224 229 233 241 248 245 246 249 255 266 275 282 281 282 286 292 299 306 306
nan 241 240 240 242 241 239 238 238 236 236 238 240 239 240 238 235 233 231 231 233 236 237 232 231 233 229 231 238 241 240 238 234 230 226 225 232 232 234 238 242 243 239 233 227 229 234 239 246 251 251 250 253 260 271 280 288 284 293 293 300 301 300
nan 239 241 240 241 242 242 239 238 237 236 238 240 239 238 237 235 232 230 228 230 233 235 232 228 231 231 232 236 242 243 240 236 232 230 227 230 235 235 237 240 241 239 238 235 232 236 239 243 250 254 252 251 254 262 276 280 289 293 299 300 303 304
nan nan 238 240 240 242 243 241 239 238 236 237 237 238 239 237 232 230 229 227 227 230 233 233 230 228 231 233 236 240 244 240 234 232 231 230 229 232 236 238 241 243 242 240 239 241 239 239 243 246 252 252 251 253 255 266 283 281 288 300 299 306 307
nan nan 237 237 239 240 241 241 239 238 237 237 237 235 238 236 231 228 227 226 226 227 231 233 232 228 226 228 231 235 240 240 235 232 233 233 232 231 235 239 242 243 242 240 239 240 244 247 243 246 249 250 251 252 253 261 271 279 280 288 294 297 302
nan nan nan 235 235 237 239 240 240 237 236 238 238 235 237 235 233 229 226 226 224 224 227 232 232 230 223 219 223 228 233 237 235 234 234 237 237 234 233 238 242 243 242 241 239 239 243 249 246 246 250 250 250 249 252 260 262 269 275 275 284 292 294
nan nan nan 234 233 235 237 238 239 238 236 237 238 237 237 236 232 229 226 225 223 222 223 229 232 231 227 222 220 222 229 231 233 236 236 237 239 240 239 238 240 243 242 242 242 242 244 249 250 250 251 253 251 249 250 255 260 264 268 270 276 287 289
nan nan nan nan 231 232 234 236 239 238 236 237 239 239 237 233 230 231 226 223 222 220 221 225 229 230 228 222 219 217 226 231 232 236 237 237 238 241 243 242 242 243 244 244 245 244 244 249 251 253 252 254 255 253 252 253 257 262 267 272 274 285 290
nan nan nan nan 230 230 232 233 237 238 236 236 236 239 238 234 232 233 229 223 222 221 221 226 227 230 229 220 216 217 223 227 229 230 234 236 237 240 244 245 243 244 246 245 249 243 245 249 253 256 257 259 260 258 256 257 260 264 267 273 279 285 291
nan nan 228 228 227 228 228 230 233 236 236 236 235 238 238 233 232 235 229 221 221 222 223 223 229 235 235 230 222 218 217 219 220 223 226 230 234 238 243 245 244 245 246 248 246 244 239 245 251 253 259 262 265 264 262 261 263 267 272 277 280 285 294
nan nan 226 224 223 226 227 229 231 234 235 234 235 237 238 235 234 235 229 221 220 223 222 223 234 236 237 239 236 232 227 223 222 216 220 227 230 236 240 243 244 245 243 244 246 247 243 243 253 253 250 260 268 269 269 269 268 270 273 278 282 288 295
nan nan 222 220 220 222 225 229 229 229 231 232 234 237 240 240 237 236 229 221 220 222 221 227 234 232 232 234 235 235 235 232 231 230 230 233 234 235 239 241 242 242 243 244 245 246 243 244 251 256 254 250 259 266 265 267 271 273 275 276 282 288 293
nan nan 220 217 218 218 225 230 230 229 233 235 234 233 234 238 239 238 232 224 220 222 222 228 231 231 231 234 236 236 234 233 232 232 231 233 235 236 239 240 241 240 241 247 243 243 244 244 246 252 252 249 248 257 264 261 258 264 273 273 276 283 288
227 223 218 216 216 217 220 226 230 230 230 233 234 237 235 237 239 239 233 225 221 221 223 227 231 231 230 230 231 229 225 228 231 231 233 234 233 233 236 239 240 240 239 243 243 243 242 244 248 249 249 249 251 256 258 259 263 264 266 270 274 276 280
nan nan 217 215 217 219 219 223 232 229 233 235 236 238 240 238 240 237 232 226 222 221 223 231 232 233 231 229 229 230 226 226 227 229 230 231 230 231 233 237 239 239 239 241 242 245 245 246 249 253 255 255 255 257 260 262 263 266 268 266 270 274 276
nan nan 219 216 217 221 223 221 229 231 233 234 234 236 239 240 242 238 232 228 223 222 223 232 230 232 232 229 230 225 225 227 228 231 232 230 232 234 230 230 236 238 238 239 245 251 248 248 251 253 258 261 261 261 260 263 269 269 267 268 268 271 275
224 222 221 220 218 223 224 227 230 232 235 238 240 242 242 242 242 240 235 230 226 222 222 231 231 232 233 232 228 223 225 227 229 232 235 236 238 237 232 230 238 239 238 239 246 254 253 248 251 255 257 261 262 263 263 263 271 278 275 268 264 263 261
218 217 222 221 222 223 230 232 233 234 237 240 241 244 247 247 246 241 238 234 228 224 223 229 233 232 233 233 230 224 224 227 230 232 236 240 240 236 230 231 237 239 237 240 250 255 255 253 251 255 256 258 262 263 264 265 264 268 278 278 275 270 264
183 191 196 206 215 220 224 228 232 235 237 241 245 246 248 248 246 241 239 235 232 228 226 229 234 234 234 234 230 223 224 226 229 232 235 238 241 238 231 236 240 236 237 241 252 256 259 257 255 256 256 257 259 261 264 268 269 269 267 267 267 266 263
187 188 194 199 204 207 210 209 216 225 232 237 242 246 247 246 248 242 237 235 234 230 226 226 231 233 234 234 234 225 223 225 228 232 235 237 238 238 235 233 240 246 242 240 248 257 261 262 259 257 256 255 255 258 262 266 267 266 267 266 264 266 266
195 200 206 202 201 209 214 217 214 209 215 226 235 237 240 241 241 236 235 236 236 231 227 224 229 234 234 235 235 230 224 224 226 231 234 235 235 237 237 237 235 247 250 248 253 256 260 265 264 258 256 253 253 253 255 259 262 263 263 262 262 261 262
205 204 207 212 215 218 217 216 218 225 217 212 208 215 222 225 231 233 235 238 234 230 227 225 225 230 232 234 236 233 226 224 225 229 232 232 233 234 236 237 239 247 255 252 253 258 259 261 265 255 251 247 247 247 249 254 257 262 263 260 259 260 260
209 210 213 214 219 223 221 219 221 225 223 219 217 213 212 211 216 226 236 236 233 230 227 227 225 226 229 232 234 233 228 224 225 225 228 230 230 231 233 235 238 247 256 256 256 259 260 261 258 255 254 244 242 245 245 251 254 256 259 261 260 259 260
211 216 221 224 224 224 223 224 224 223 226 229 224 224 225 223 223 219 221 230 231 230 229 227 229 230 228 229 231 232 230 226 226 226 227 227 227 228 230 234 235 244 254 254 255 257 258 258 255 260 260 256 248 247 248 250 254 255 256 258 260 261 262